Weather History for Fryeburg, ME

Change the Weather History Date:

Saturday, May 18, 2013

  Actual Average Record
Temperature  
Mean Temperature 52 °F -  
Max Temperature 71 °F 65 °F 81 °F (1998)
Min Temperature 35 °F 38 °F 30 °F (2003)
Degree Days  
Heating Degree Days 13    
Growing Degree Days 2 (Base 50)    
Moisture  
Dew Point 39 °F    
Average Humidity 78    
Maximum Humidity 100    
Minimum Humidity 28    
Precipitation  
Precipitation 0.00 in - - ()
Sea Level Pressure  
Sea Level Pressure 30.27 in    
Wind  
Wind Speed 1 mph (ESE)    
Max Wind Speed 8 mph    
Max Gust Speed 16 mph    
Visibility 7 miles    
Events Fog    
Averages and records for this station are not official NWS values.
T = Trace of Precipitation, MM = Missing Value Source: NWS Daily Summary

Daily Weather History Graph

Daily Weather History Graph

Search for Another Location

Airport:

Trip Planner

Search our weather history database for the weather conditions in past years. The results will help you decide how hot, cold, wet, or windy it might be!

Date:

Astronomy

May. 18, 2013 Rise Set
Actual Time 5:14 AM EDT 8:06 PM EDT
Civil Twilight 4:40 AM EDT 8:40 PM EDT
Nautical Twilight 3:57 AM EDT 9:23 PM EDT
Astronomical Twilight 3:07 AM EDT 10:14 PM EDT
Moon 12:52 PM EDT (5/18) 1:20 AM EDT (5/18)
Length of Visible Light 15h 59m
Length of Day
14h 52m
First Quarter, 55% of the Moon is Illuminated
May 18
First Quarter
May 25
Full
May 31
Last Quarter
Jun 8
New
Jun 16
First Quarter

Hourly Weather History & Observations

Time (EDT) Temp. Dew Point Humidity Pressure Visibility Wind Dir Wind Speed Gust Speed Precip Events Conditions
12:54 AM 45.0 °F 41.0 °F 86% 30.23 in 10.0 mi Calm Calm - N/A   Overcast
1:54 AM 45.0 °F 42.1 °F 90% 30.23 in 10.0 mi Calm Calm - N/A   Overcast
2:54 AM 44.1 °F 41.0 °F 89% 30.24 in 10.0 mi Calm Calm - N/A   Overcast
3:54 AM 41.0 °F 39.0 °F 93% 30.24 in 10.0 mi Calm Calm - N/A   Mostly Cloudy
4:50 AM 37.4 °F 37.4 °F 100% 30.24 in 1.5 mi Calm Calm - N/A   Partly Cloudy
4:52 AM 37.4 °F 35.6 °F 93% 30.24 in 1.0 mi Calm Calm - N/A   Mist
4:54 AM 37.0 °F 36.0 °F 96% 30.26 in 0.8 mi Calm Calm - N/A   Mist
5:05 AM 37.4 °F 37.4 °F 100% 30.25 in 1.2 mi Calm Calm - N/A   Partly Cloudy
5:10 AM 35.6 °F 35.6 °F 100% 30.25 in 0.2 mi Calm Calm - N/A Fog Fog
5:19 AM 37.4 °F 37.4 °F 100% 30.25 in 1.0 mi Calm Calm - N/A   Mist
5:21 AM 37.4 °F 35.6 °F 93% 30.25 in 3.0 mi Calm Calm - N/A   Partly Cloudy
5:25 AM 35.6 °F 35.6 °F 100% 30.25 in 0.8 mi Calm Calm - N/A   Mist
5:33 AM 35.6 °F 35.6 °F 100% 30.26 in 0.2 mi Calm Calm - N/A Fog Fog
5:47 AM 37.4 °F 37.4 °F 100% 30.26 in 1.2 mi Calm Calm - N/A   Partly Cloudy
5:54 AM 37.0 °F 37.0 °F 100% 30.28 in 10.0 mi Calm Calm - N/A   Partly Cloudy
6:05 AM 37.4 °F 37.4 °F 100% 30.27 in 0.2 mi Calm Calm - N/A Fog Fog
6:16 AM 39.2 °F 39.2 °F 100% 30.27 in 1.0 mi Calm Calm - N/A   Mist
6:18 AM 39.2 °F 39.2 °F 100% 30.27 in 2.0 mi Calm Calm - N/A   Partly Cloudy
6:25 AM 41.0 °F 39.2 °F 93% 30.28 in 10.0 mi Calm Calm - N/A   Partly Cloudy
6:54 AM 45.0 °F 44.1 °F 97% 30.30 in 10.0 mi Calm Calm - N/A   Clear
7:54 AM 52.0 °F 44.1 °F 74% 30.30 in 10.0 mi SSW 3.5 mph - N/A   Clear
8:54 AM 57.0 °F 43.0 °F 59% 30.31 in 10.0 mi NNE 4.6 mph - N/A   Clear
9:54 AM 62.1 °F 41.0 °F 46% 30.31 in 10.0 mi Variable 3.5 mph - N/A   Clear
10:54 AM 64.9 °F 35.1 °F 33% 30.30 in 10.0 mi Calm Calm - N/A   Clear
11:54 AM 69.1 °F 36.0 °F 30% 30.28 in 10.0 mi Variable 5.8 mph - N/A   Mostly Cloudy
12:54 PM 68.0 °F 36.0 °F 31% 30.27 in 10.0 mi NNW 6.9 mph - N/A   Mostly Cloudy
1:54 PM 66.9 °F 33.1 °F 28% 30.26 in 10.0 mi Calm Calm - N/A   Overcast
3:54 PM 68.0 °F 42.1 °F 39% 30.24 in 10.0 mi SE 6.9 mph - N/A   Scattered Clouds
4:54 PM 66.9 °F 44.1 °F 44% 30.25 in 10.0 mi Variable 6.9 mph 16.1 mph N/A   Scattered Clouds
6:54 PM 57.9 °F 43.0 °F 58% 30.29 in 10.0 mi ESE 8.1 mph - N/A   Mostly Cloudy
7:54 PM 54.0 °F 43.0 °F 66% 30.31 in 10.0 mi SE 6.9 mph - N/A   Mostly Cloudy
8:54 PM 51.1 °F 42.1 °F 71% 30.33 in 10.0 mi Calm Calm - N/A   Mostly Cloudy
9:54 PM 48.9 °F 42.1 °F 77% 30.34 in 10.0 mi Calm Calm - N/A   Overcast
11:54 PM 46.9 °F 42.1 °F 83% 30.33 in 10.0 mi Calm Calm - N/A   Overcast